Weather History for Crosby, ND

Change the Weather History Date:

Thursday, November 8, 2012

  Actual Average (KISN) Record (KISN)
Temperature  
Mean Temperature 30 °F 31 °F  
Max Temperature 37 °F 43 °F 70 °F (1999)
Min Temperature 24 °F 20 °F -14 °F (1895)
Degree Days  
Heating Degree Days 34 34  
Month to date heating degree days 253  
Since 1 July heating degree days 1280  
Cooling Degree Days 0 0  
Month to date cooling degree days 0  
Year to date cooling degree days 456  
Moisture  
Dew Point 28 °F    
Average Humidity 88    
Maximum Humidity 100    
Minimum Humidity 80    
Precipitation  
Precipitation 1.29 in 0.03 in 0.48 in (1935)
Month to date precipitation 0.21  
Year to date precipitation 13.31  
Sea Level Pressure  
Sea Level Pressure 30.08 in    
Wind  
Wind Speed 15 mph (NNE)    
Max Wind Speed 22 mph    
Max Gust Speed 28 mph    
Visibility 9 miles    
Events Rain , Snow    
T = Trace of Precipitation, MM = Missing Value Source: NWS Daily Summary

Daily Weather History Graph

Daily Weather History Graph

Search for Another Location

Airport:

Trip Planner

Search our weather history database for the weather conditions in past years. The results will help you decide how hot, cold, wet, or windy it might be!

Date:

Astronomy

Nov. 08, 2012 Rise Set
Actual Time 7:52 AM CST 5:20 PM CST
Civil Twilight 7:18 AM CST 5:54 PM CST
Nautical Twilight 6:40 AM CST 6:32 PM CST
Astronomical Twilight 6:03 AM CST 7:09 PM CST
Moon 1:20 AM CST (11/8) 2:29 PM CST (11/8)
Length of Visible Light 10h 36m
Length of Day
9h 28m
Waning Crescent, 32% of the Moon is Illuminated
Nov 8
Waning Crescent
Nov 13
New
Nov 20
First Quarter
Nov 28
Full
Dec 6
Last Quarter

Hourly Weather History & Observations

Time (CST) Temp. Windchill Dew Point Humidity Pressure Visibility Wind Dir Wind Speed Gust Speed Precip Events Conditions
12:15 AM 37.4 °F 28.2 °F 32.0 °F 81% 29.81 in 10.0 mi WNW 16.1 mph 23.0 mph N/A   Partly Cloudy
12:35 AM 35.6 °F 24.8 °F 32.0 °F 87% 29.82 in 10.0 mi NW 19.6 mph 25.3 mph N/A   Clear
12:55 AM 33.8 °F 22.8 °F 32.0 °F 93% 29.84 in 10.0 mi WNW 18.4 mph 23.0 mph N/A   Clear
1:15 AM 33.8 °F 23.5 °F 32.0 °F 93% 29.84 in 10.0 mi WNW 16.1 mph - N/A   Clear
1:35 AM 32.0 °F 22.1 °F 32.0 °F 100% 29.86 in 10.0 mi WNW 13.8 mph - N/A   Clear
1:55 AM 33.8 °F 24.3 °F 32.0 °F 93% 29.87 in 10.0 mi WNW 13.8 mph - N/A   Mostly Cloudy
2:35 AM 35.6 °F 24.2 °F 32.0 °F 87% 29.88 in 10.0 mi NW 21.9 mph 26.5 mph N/A   Overcast
2:55 AM 35.6 °F 25.2 °F 32.0 °F 87% 29.90 in 10.0 mi NW 18.4 mph 23.0 mph N/A   Overcast
3:15 AM 35.6 °F 24.8 °F 32.0 °F 87% 29.92 in 10.0 mi NW 19.6 mph 25.3 mph N/A   Overcast
3:35 AM 35.6 °F 25.2 °F 32.0 °F 87% 29.93 in 10.0 mi NW 18.4 mph 24.2 mph N/A   Overcast
3:55 AM 33.8 °F 22.5 °F 32.0 °F 93% 29.93 in 10.0 mi NW 19.6 mph 23.0 mph N/A   Overcast
4:15 AM 33.8 °F 22.5 °F 32.0 °F 93% 29.94 in 10.0 mi NNW 19.6 mph 24.2 mph N/A   Overcast
4:35 AM 33.8 °F 23.2 °F 32.0 °F 93% 29.96 in 10.0 mi NW 17.3 mph 24.2 mph N/A   Overcast
4:55 AM 32.0 °F 19.8 °F 32.0 °F 100% 29.97 in 10.0 mi NNW 20.7 mph 27.6 mph N/A   Overcast
5:15 AM 32.0 °F 19.8 °F 32.0 °F 100% 29.98 in 10.0 mi NNW 20.7 mph 27.6 mph N/A   Overcast
5:35 AM 32.0 °F 21.2 °F 32.0 °F 100% 29.99 in 10.0 mi NNW 16.1 mph 24.2 mph N/A   Overcast
5:55 AM 32.0 °F 21.6 °F 32.0 °F 100% 30.00 in 10.0 mi NNW 15.0 mph 23.0 mph N/A   Overcast
6:15 AM 32.0 °F 21.2 °F 32.0 °F 100% 30.01 in 10.0 mi NNW 16.1 mph 19.6 mph N/A   Overcast
6:35 AM 32.0 °F 23.0 °F 32.0 °F 100% 30.02 in 10.0 mi NNW 11.5 mph - N/A   Overcast
6:55 AM 32.0 °F 21.6 °F 32.0 °F 100% 30.03 in 10.0 mi NNW 15.0 mph 18.4 mph N/A   Overcast
7:15 AM 32.0 °F 23.0 °F 32.0 °F 100% 30.04 in 10.0 mi North 11.5 mph 18.4 mph N/A   Overcast
7:35 AM 32.0 °F 23.0 °F 32.0 °F 100% 30.06 in 10.0 mi NNW 11.5 mph - N/A   Overcast
7:55 AM 32.0 °F 23.0 °F 32.0 °F 100% 30.06 in 10.0 mi North 11.5 mph - N/A   Overcast
8:15 AM 32.0 °F 23.6 °F 32.0 °F 100% 30.07 in 10.0 mi North 10.4 mph - N/A   Overcast
8:35 AM 32.0 °F 23.6 °F 32.0 °F 100% 30.08 in 10.0 mi North 10.4 mph - N/A Rain Light Rain
8:55 AM 32.0 °F 22.1 °F 30.2 °F 93% 30.08 in 10.0 mi North 13.8 mph 20.7 mph N/A   Overcast
9:15 AM 32.0 °F 22.5 °F 28.4 °F 87% 30.09 in 10.0 mi NNE 12.7 mph - N/A   Overcast
9:35 AM 32.0 °F 21.6 °F 26.6 °F 80% 30.10 in 10.0 mi NNE 15.0 mph - N/A   Overcast
9:55 AM 32.0 °F 22.1 °F 26.6 °F 80% 30.11 in 10.0 mi NNE 13.8 mph 19.6 mph N/A   Overcast
10:15 AM 32.0 °F 22.1 °F 26.6 °F 80% 30.12 in 10.0 mi North 13.8 mph - N/A   Overcast
10:35 AM 32.0 °F 22.1 °F 26.6 °F 80% 30.13 in 10.0 mi NNE 13.8 mph - N/A   Overcast
10:55 AM 32.0 °F 23.0 °F 26.6 °F 80% 30.14 in 10.0 mi NNE 11.5 mph - N/A   Overcast
11:15 AM 32.0 °F 24.2 °F 26.6 °F 80% 30.15 in 10.0 mi NNE 9.2 mph - N/A   Overcast
11:35 AM 32.0 °F 24.2 °F 26.6 °F 80% 30.15 in 10.0 mi NE 9.2 mph - N/A   Overcast
11:55 AM 32.0 °F 24.2 °F 26.6 °F 80% 30.15 in 10.0 mi NNE 9.2 mph - N/A   Overcast
12:15 PM 32.0 °F 23.0 °F 26.6 °F 80% 30.14 in 10.0 mi NE 11.5 mph - N/A   Overcast
12:55 PM 32.0 °F 23.0 °F 26.6 °F 80% 30.13 in 10.0 mi North 11.5 mph - N/A   Overcast
1:15 PM 32.0 °F 24.8 °F 26.6 °F 80% 30.14 in 10.0 mi NNE 8.1 mph - N/A   Overcast
1:35 PM 32.0 °F 22.5 °F 26.6 °F 80% 30.13 in 10.0 mi NNE 12.7 mph - N/A   Overcast
1:55 PM 32.0 °F 23.6 °F 26.6 °F 80% 30.14 in 10.0 mi NNE 10.4 mph - N/A   Overcast
2:15 PM 32.0 °F 22.5 °F 26.6 °F 80% 30.13 in 10.0 mi NNE 12.7 mph - N/A   Overcast
2:35 PM 32.0 °F 24.2 °F 26.6 °F 80% 30.13 in 10.0 mi NNE 9.2 mph - N/A   Overcast
2:55 PM 32.0 °F 22.5 °F 26.6 °F 80% 30.13 in 10.0 mi NNE 12.7 mph - N/A   Overcast
3:15 PM 32.0 °F 23.6 °F 26.6 °F 80% 30.13 in 10.0 mi NE 10.4 mph - N/A   Overcast
3:35 PM 32.0 °F 23.0 °F 26.6 °F 80% 30.14 in 10.0 mi NNE 11.5 mph - N/A   Overcast
3:55 PM 32.0 °F 23.6 °F 26.6 °F 80% 30.14 in 10.0 mi NNE 10.4 mph - N/A   Overcast
4:15 PM 32.0 °F 22.5 °F 26.6 °F 80% 30.14 in 10.0 mi NNE 12.7 mph - N/A   Overcast
4:35 PM 32.0 °F 22.1 °F 26.6 °F 80% 30.14 in 10.0 mi NNE 13.8 mph - N/A   Overcast
4:55 PM 32.0 °F 22.5 °F 26.6 °F 80% 30.15 in 10.0 mi NNE 12.7 mph - N/A   Overcast
5:15 PM 30.2 °F 19.3 °F 26.6 °F 86% 30.14 in 10.0 mi NNE 15.0 mph 18.4 mph N/A   Overcast
5:35 PM 30.2 °F 20.8 °F 26.6 °F 86% 30.14 in 10.0 mi NNE 11.5 mph - N/A   Overcast
5:55 PM 30.2 °F 20.2 °F 26.6 °F 86% 30.14 in 10.0 mi NE 12.7 mph - N/A   Overcast
6:15 PM 30.2 °F 20.8 °F 24.8 °F 80% 30.14 in 10.0 mi ENE 11.5 mph - N/A   Overcast
6:35 PM 30.2 °F 20.8 °F 24.8 °F 80% 30.14 in 10.0 mi ENE 11.5 mph - N/A   Overcast
6:55 PM 28.4 °F 18.5 °F 24.8 °F 86% 30.15 in 10.0 mi ENE 11.5 mph 20.7 mph N/A   Overcast
7:15 PM 28.4 °F 16.6 °F 24.8 °F 86% 30.15 in 10.0 mi ENE 16.1 mph - N/A   Overcast
7:35 PM 28.4 °F 16.6 °F 24.8 °F 86% 30.16 in 10.0 mi ENE 16.1 mph 19.6 mph N/A   Overcast
7:55 PM 28.4 °F 17.0 °F 24.8 °F 86% 30.16 in 10.0 mi ENE 15.0 mph - N/A   Overcast
8:15 PM 28.4 °F 18.5 °F 23.0 °F 80% 30.16 in 10.0 mi ENE 11.5 mph 18.4 mph N/A   Overcast
8:35 PM 28.4 °F 19.1 °F 23.0 °F 80% 30.17 in 10.0 mi ENE 10.4 mph - N/A   Overcast
8:55 PM 28.4 °F 18.0 °F 23.0 °F 80% 30.17 in 10.0 mi ENE 12.7 mph - N/A   Overcast
9:15 PM 28.4 °F 18.0 °F 23.0 °F 80% 30.17 in 10.0 mi ENE 12.7 mph 19.6 mph N/A   Overcast
9:35 PM 28.4 °F 19.1 °F 23.0 °F 80% 30.17 in 9.0 mi NE 10.4 mph 17.3 mph N/A   Unknown
9:55 PM 26.6 °F 16.2 °F 24.8 °F 93% 30.18 in 2.5 mi ENE 11.5 mph - 0.05 in Snow Light Snow
10:15 PM 26.6 °F 16.2 °F 24.8 °F 93% 30.19 in 1.2 mi ENE 11.5 mph - 0.17 in Snow Light Snow
10:35 PM 26.6 °F 16.2 °F 26.6 °F 100% 30.19 in 1.2 mi ENE 11.5 mph - 0.51 in Snow Light Snow
10:55 PM 26.6 °F 16.2 °F 26.6 °F 100% 30.19 in 1.0 mi ENE 11.5 mph - 0.93 in Snow Light Snow
11:15 PM 24.8 °F 13.4 °F 24.8 °F 100% 30.18 in 1.8 mi ENE 12.7 mph 18.4 mph 0.17 in Snow Light Snow
11:35 PM 24.8 °F 11.9 °F 24.8 °F 100% 30.18 in 1.5 mi East 16.1 mph 20.7 mph 0.26 in Snow Light Snow
11:55 PM 24.8 °F 12.9 °F 24.8 °F 100% 30.18 in 3.0 mi East 13.8 mph 21.9 mph 0.31 in Snow Light Snow